Time,TemperatureF,DewpointF,PressureIn,WindDirection,WindDirectionDegrees,WindSpeedMPH,WindSpeedGustMPH,Humidity,HourlyPrecipIn,Conditions,Clouds,dailyrainin,SolarRadiationWatts/m^2,SoftwareType,DateUTC
2013-05-26 00:01:00,44.2,40.6,29.86,West,259,0.0,1.0,87,0.00,,,0.00,0,Wunderground v.1.15,2013-05-26 04:01:00,
2013-05-26 00:02:00,44.2,40.6,29.85,West,281,1.0,1.0,87,0.00,,,0.00,0,Wunderground v.1.15,2013-05-26 04:02:00,
2013-05-26 00:03:00,44.3,40.7,29.85,NNW,327,2.0,2.0,87,0.00,,,0.00,0,Wunderground v.1.15,2013-05-26 04:03:00,
2013-05-26 00:06:00,44.3,40.7,29.85,WNW,293,0.0,3.0,87,0.00,,,0.00,0,Wunderground v.1.15,2013-05-26 04:06:00,
2013-05-26 00:11:00,44.2,40.6,29.85,NE,34,0.0,1.0,87,0.00,,,0.00,0,Wunderground v.1.15,2013-05-26 04:11:00,
2013-05-26 00:17:00,44.3,40.4,29.85,WNW,303,1.0,1.0,86,0.00,,,0.00,0,Wunderground v.1.15,2013-05-26 04:17:00,
2013-05-26 00:22:00,44.3,40.4,29.85,NNW,329,1.0,2.0,86,0.00,,,0.00,0,Wunderground v.1.15,2013-05-26 04:22:00,
2013-05-26 00:28:00,44.4,40.5,29.85,NNW,333,1.0,3.0,86,0.00,,,0.00,0,Wunderground v.1.15,2013-05-26 04:28:00,
2013-05-26 00:33:00,44.4,40.5,29.85,NNW,340,0.0,3.0,86,0.00,,,0.00,0,Wunderground v.1.15,2013-05-26 04:33:00,
2013-05-26 00:39:00,44.3,40.4,29.85,NNW,342,1.0,3.0,86,0.00,,,0.00,0,Wunderground v.1.15,2013-05-26 04:39:00,
2013-05-26 00:45:00,44.3,40.1,29.85,NNW,346,2.0,3.0,85,0.00,,,0.00,0,Wunderground v.1.15,2013-05-26 04:45:00,
2013-05-26 00:51:00,44.3,40.1,29.85,NW,317,3.0,3.0,85,0.00,,,0.00,0,Wunderground v.1.15,2013-05-26 04:51:00,
2013-05-26 00:56:00,44.2,40.0,29.84,WNW,303,0.0,3.0,85,0.00,,,0.00,0,Wunderground v.1.15,2013-05-26 04:56:00,
2013-05-26 01:02:00,44.1,39.9,29.85,East,85,0.0,3.0,85,0.00,,,0.00,0,Wunderground v.1.15,2013-05-26 05:02:00,
2013-05-26 01:08:00,43.9,40.0,29.85,WNW,300,0.0,3.0,86,0.00,,,0.00,0,Wunderground v.1.15,2013-05-26 05:08:00,
2013-05-26 01:13:00,44.0,40.1,29.85,SSW,200,1.0,2.0,86,0.00,,,0.00,0,Wunderground v.1.15,2013-05-26 05:13:00,
2013-05-26 01:19:00,43.9,40.0,29.85,NNW,340,0.0,3.0,86,0.00,,,0.00,0,Wunderground v.1.15,2013-05-26 05:19:00,
2013-05-26 01:25:00,44.0,40.1,29.85,SE,130,2.0,3.0,86,0.00,,,0.00,0,Wunderground v.1.15,2013-05-26 05:25:00,
2013-05-26 01:31:00,44.2,40.3,29.85,West,265,1.0,1.0,86,0.00,,,0.00,0,Wunderground v.1.15,2013-05-26 05:31:00,
2013-05-26 01:36:00,44.3,40.4,29.85,WSW,258,2.0,2.0,86,0.00,,,0.00,0,Wunderground v.1.15,2013-05-26 05:36:00,
2013-05-26 01:42:00,44.5,40.3,29.85,NNW,342,2.0,2.0,85,0.00,,,0.00,0,Wunderground v.1.15,2013-05-26 05:42:00,
2013-05-26 01:48:00,44.7,40.5,29.85,North,9,3.0,3.0,85,0.00,,,0.00,0,Wunderground v.1.15,2013-05-26 05:48:00,
2013-05-26 01:54:00,44.7,40.5,29.85,WSW,242,1.0,1.0,85,0.00,,,0.00,0,Wunderground v.1.15,2013-05-26 05:54:00,
2013-05-26 02:00:00,44.7,40.5,29.85,SW,214,2.0,2.0,85,0.00,,,0.00,0,Wunderground v.1.15,2013-05-26 06:00:00,
2013-05-26 02:05:00,44.7,40.5,29.85,NNW,329,0.0,3.0,85,0.00,,,0.00,0,Wunderground v.1.15,2013-05-26 06:05:00,
2013-05-26 02:10:00,44.8,40.6,29.85,NNW,329,1.0,1.0,85,0.00,,,0.00,0,Wunderground v.1.15,2013-05-26 06:10:00,
2013-05-26 02:15:00,44.8,40.6,29.85,NNW,340,1.0,3.0,85,0.00,,,0.00,0,Wunderground v.1.15,2013-05-26 06:15:00,
2013-05-26 02:20:00,44.9,40.7,29.85,West,263,0.0,1.0,85,0.00,,,0.00,0,Wunderground v.1.15,2013-05-26 06:20:00,
2013-05-26 02:25:00,44.9,40.7,29.85,NW,315,1.0,2.0,85,0.00,,,0.00,0,Wunderground v.1.15,2013-05-26 06:25:00,
2013-05-26 02:30:00,44.9,40.7,29.85,SSW,210,0.0,1.0,85,0.00,,,0.00,0,Wunderground v.1.15,2013-05-26 06:30:00,
2013-05-26 02:35:00,44.9,40.7,29.85,NW,317,0.0,5.0,85,0.00,,,0.00,0,Wunderground v.1.15,2013-05-26 06:35:00,
2013-05-26 02:40:00,45.0,40.8,29.85,NNE,13,0.0,2.0,85,0.00,,,0.00,0,Wunderground v.1.15,2013-05-26 06:40:00,
2013-05-26 02:45:00,45.0,40.8,29.84,WSW,254,0.0,6.0,85,0.00,,,0.00,0,Wunderground v.1.15,2013-05-26 06:45:00,
2013-05-26 02:50:00,45.0,40.8,29.84,WSW,257,1.0,1.0,85,0.00,,,0.00,0,Wunderground v.1.15,2013-05-26 06:50:00,
2013-05-26 02:55:00,45.0,40.8,29.84,SW,232,1.0,4.0,85,0.00,,,0.00,0,Wunderground v.1.15,2013-05-26 06:55:00,
2013-05-26 03:00:00,45.1,40.6,29.84,West,259,1.0,3.0,84,0.00,,,0.00,0,Wunderground v.1.15,2013-05-26 07:00:00,
2013-05-26 03:05:00,45.1,40.6,29.85,WSW,246,0.0,4.0,84,0.00,,,0.00,0,Wunderground v.1.15,2013-05-26 07:05:00,
2013-05-26 03:10:00,45.1,40.6,29.85,WNW,303,3.0,3.0,84,0.00,,,0.00,0,Wunderground v.1.15,2013-05-26 07:10:00,
2013-05-26 03:15:00,45.1,40.6,29.85,NE,44,0.0,6.0,84,0.00,,,0.00,0,Wunderground v.1.15,2013-05-26 07:15:00,
2013-05-26 03:20:00,45.1,40.6,29.84,NNW,327,1.0,2.0,84,0.00,,,0.00,0,Wunderground v.1.15,2013-05-26 07:20:00,
2013-05-26 03:25:00,45.1,40.6,29.84,ENE,70,2.0,5.0,84,0.00,,,0.00,0,Wunderground v.1.15,2013-05-26 07:25:00,
2013-05-26 03:30:00,45.1,40.9,29.84,NE,56,0.0,1.0,85,0.00,,,0.00,0,Wunderground v.1.15,2013-05-26 07:30:00,
2013-05-26 03:35:00,45.0,40.8,29.85,West,275,2.0,3.0,85,0.00,,,0.00,0,Wunderground v.1.15,2013-05-26 07:35:00,
2013-05-26 03:40:00,44.9,41.0,29.84,NE,53,2.0,4.0,86,0.00,,,0.00,0,Wunderground v.1.15,2013-05-26 07:40:00,
2013-05-26 03:45:00,44.9,41.0,29.84,WSW,253,4.0,9.0,86,0.00,,,0.00,0,Wunderground v.1.15,2013-05-26 07:45:00,
2013-05-26 03:50:00,44.9,41.0,29.84,NW,307,0.0,4.0,86,0.00,,,0.00,0,Wunderground v.1.15,2013-05-26 07:50:00,
2013-05-26 03:55:00,44.8,40.9,29.84,SSW,205,2.0,4.0,86,0.00,,,0.00,0,Wunderground v.1.15,2013-05-26 07:55:00,
2013-05-26 04:00:00,44.9,40.7,29.84,NE,40,0.0,2.0,85,0.00,,,0.00,0,Wunderground v.1.15,2013-05-26 08:00:00,
2013-05-26 04:05:00,44.9,40.7,29.84,SE,130,1.0,6.0,85,0.00,,,0.00,0,Wunderground v.1.15,2013-05-26 08:05:00,
2013-05-26 04:10:00,45.0,40.8,29.84,WNW,293,1.0,3.0,85,0.00,,,0.00,0,Wunderground v.1.15,2013-05-26 08:10:00,
2013-05-26 04:15:00,45.1,40.6,29.84,North,350,1.0,12.0,84,0.00,,,0.00,0,Wunderground v.1.15,2013-05-26 08:15:00,
2013-05-26 04:20:00,45.1,40.6,29.84,NW,316,3.0,4.0,84,0.00,,,0.00,0,Wunderground v.1.15,2013-05-26 08:20:00,
2013-05-26 04:25:00,45.2,40.7,29.84,West,269,1.0,4.0,84,0.00,,,0.00,0,Wunderground v.1.15,2013-05-26 08:25:00,
2013-05-26 04:30:00,45.1,40.6,29.84,SSW,192,3.0,5.0,84,0.00,,,0.00,0,Wunderground v.1.15,2013-05-26 08:30:00,
2013-05-26 04:35:00,45.1,40.6,29.84,WSW,245,2.0,6.0,84,0.00,,,0.00,0,Wunderground v.1.15,2013-05-26 08:35:00,
2013-05-26 04:40:00,45.2,40.3,29.84,WSW,242,1.0,2.0,83,0.00,,,0.00,0,Wunderground v.1.15,2013-05-26 08:40:00,
2013-05-26 04:45:00,45.2,40.3,29.84,WSW,256,1.0,9.0,83,0.00,,,0.00,0,Wunderground v.1.15,2013-05-26 08:45:00,
2013-05-26 04:50:00,45.4,40.2,29.84,NNW,346,2.0,2.0,82,0.00,,,0.00,0,Wunderground v.1.15,2013-05-26 08:50:00,
2013-05-26 04:56:00,45.4,40.2,29.85,North,10,1.0,3.0,82,0.00,,,0.00,0,Wunderground v.1.15,2013-05-26 08:56:00,
2013-05-26 05:01:00,45.3,40.1,29.85,SSW,209,0.0,4.0,82,0.00,,,0.00,0,Wunderground v.1.15,2013-05-26 09:01:00,
2013-05-26 05:06:00,45.2,40.3,29.85,WSW,238,1.0,4.0,83,0.00,,,0.00,0,Wunderground v.1.15,2013-05-26 09:06:00,
2013-05-26 05:11:00,45.1,40.2,29.85,North,9,0.0,3.0,83,0.00,,,0.00,0,Wunderground v.1.15,2013-05-26 09:11:00,
2013-05-26 05:16:00,45.0,40.1,29.86,North,355,0.0,3.0,83,0.00,,,0.00,0,Wunderground v.1.15,2013-05-26 09:16:00,
2013-05-26 05:21:00,45.0,40.1,29.86,North,5,1.0,2.0,83,0.00,,,0.00,0,Wunderground v.1.15,2013-05-26 09:21:00,
2013-05-26 05:26:00,45.1,40.2,29.86,West,269,2.0,3.0,83,0.00,,,0.00,5,Wunderground v.1.15,2013-05-26 09:26:00,
2013-05-26 05:31:00,45.3,40.1,29.86,SSE,168,0.0,2.0,82,0.00,,,0.00,9,Wunderground v.1.15,2013-05-26 09:31:00,
2013-05-26 05:36:00,45.5,40.3,29.86,SE,146,0.0,5.0,82,0.00,,,0.00,14,Wunderground v.1.15,2013-05-26 09:36:00,
2013-05-26 05:41:00,45.6,40.4,29.86,West,263,2.0,4.0,82,0.00,,,0.00,18,Wunderground v.1.15,2013-05-26 09:41:00,
2013-05-26 05:46:00,45.8,40.6,29.86,SSE,153,1.0,7.0,82,0.00,,,0.00,33,Wunderground v.1.15,2013-05-26 09:46:00,
2013-05-26 05:51:00,46.0,40.5,29.86,North,11,2.0,3.0,81,0.00,,,0.00,40,Wunderground v.1.15,2013-05-26 09:51:00,
2013-05-26 05:56:00,46.2,40.7,29.87,SW,227,2.0,6.0,81,0.00,,,0.00,35,Wunderground v.1.15,2013-05-26 09:56:00,
2013-05-26 06:01:00,46.3,40.8,29.87,NNW,333,1.0,2.0,81,0.00,,,0.00,16,Wunderground v.1.15,2013-05-26 10:01:00,
2013-05-26 06:06:00,46.2,40.7,29.87,WNW,296,3.0,6.0,81,0.00,,,0.00,14,Wunderground v.1.15,2013-05-26 10:06:00,
2013-05-26 06:11:00,46.1,40.6,29.87,ENE,61,1.0,3.0,81,0.00,,,0.00,19,Wunderground v.1.15,2013-05-26 10:11:00,
2013-05-26 06:16:00,46.1,40.6,29.87,West,261,1.0,5.0,81,0.00,,,0.00,30,Wunderground v.1.15,2013-05-26 10:16:00,
2013-05-26 06:21:00,46.3,41.1,29.88,North,360,0.0,2.0,82,0.00,,,0.00,46,Wunderground v.1.15,2013-05-26 10:21:00,
2013-05-26 06:26:00,46.4,40.9,29.88,WSW,244,1.0,2.0,81,0.00,,,0.00,65,Wunderground v.1.15,2013-05-26 10:26:00,
2013-05-26 06:31:00,46.5,41.3,29.88,South,187,0.0,2.0,82,0.00,,,0.00,70,Wunderground v.1.15,2013-05-26 10:31:00,
2013-05-26 06:36:00,46.6,41.1,29.88,South,185,1.0,3.0,81,0.00,,,0.00,88,Wunderground v.1.15,2013-05-26 10:36:00,
2013-05-26 06:41:00,46.8,41.3,29.88,WSW,250,0.0,5.0,81,0.00,,,0.01,97,Wunderground v.1.15,2013-05-26 10:41:00,
2013-05-26 06:46:00,47.0,41.5,29.88,West,277,0.0,5.0,81,0.00,,,0.01,113,Wunderground v.1.15,2013-05-26 10:46:00,
2013-05-26 06:51:00,47.3,41.8,29.88,SW,219,1.0,3.0,81,0.00,,,0.01,104,Wunderground v.1.15,2013-05-26 10:51:00,
2013-05-26 06:56:00,47.4,41.5,29.89,West,271,0.0,3.0,80,0.00,,,0.01,111,Wunderground v.1.15,2013-05-26 10:56:00,
2013-05-26 07:02:00,47.6,42.1,29.89,NW,317,0.0,5.0,81,0.00,,,0.01,120,Wunderground v.1.15,2013-05-26 11:02:00,
2013-05-26 07:07:00,47.6,41.7,29.89,SW,227,4.0,8.0,80,0.00,,,0.01,118,Wunderground v.1.15,2013-05-26 11:07:00,
2013-05-26 07:12:00,47.8,41.9,29.89,NNW,344,3.0,5.0,80,0.00,,,0.01,120,Wunderground v.1.15,2013-05-26 11:12:00,
2013-05-26 07:17:00,47.9,42.0,29.89,SW,230,7.0,7.0,80,0.00,,,0.01,123,Wunderground v.1.15,2013-05-26 11:17:00,
2013-05-26 07:22:00,48.1,41.9,29.89,WNW,286,1.0,10.0,79,0.00,,,0.01,120,Wunderground v.1.15,2013-05-26 11:22:00,
2013-05-26 07:27:00,48.2,42.0,29.89,NNW,332,1.0,10.0,79,0.00,,,0.01,118,Wunderground v.1.15,2013-05-26 11:27:00,
2013-05-26 07:32:00,48.3,42.1,29.89,SSW,202,2.0,3.0,79,0.00,,,0.01,114,Wunderground v.1.15,2013-05-26 11:32:00,
2013-05-26 07:37:00,48.4,41.9,29.90,WNW,298,0.0,7.0,78,0.00,,,0.01,116,Wunderground v.1.15,2013-05-26 11:37:00,
2013-05-26 07:42:00,48.5,42.3,29.90,North,5,0.0,4.0,79,0.00,,,0.01,156,Wunderground v.1.15,2013-05-26 11:42:00,
2013-05-26 07:47:00,48.7,42.5,29.90,NW,323,0.0,4.0,79,0.00,,,0.01,169,Wunderground v.1.15,2013-05-26 11:47:00,
2013-05-26 07:52:00,48.9,42.7,29.90,WSW,249,1.0,2.0,79,0.00,,,0.01,197,Wunderground v.1.15,2013-05-26 11:52:00,
2013-05-26 07:57:00,49.2,43.0,29.90,NNW,343,1.0,3.0,79,0.00,,,0.01,322,Wunderground v.1.15,2013-05-26 11:57:00,
2013-05-26 08:02:00,49.8,43.9,29.90,SSW,199,3.0,3.0,80,0.00,,,0.01,316,Wunderground v.1.15,2013-05-26 12:02:00,
2013-05-26 08:07:00,50.1,43.5,29.90,NW,313,2.0,4.0,78,0.00,,,0.01,438,Wunderground v.1.15,2013-05-26 12:07:00,
2013-05-26 08:12:00,50.4,43.8,29.90,SW,214,2.0,3.0,78,0.00,,,0.01,285,Wunderground v.1.15,2013-05-26 12:12:00,
2013-05-26 08:17:00,50.3,43.7,29.91,West,269,1.0,4.0,78,0.00,,,0.01,257,Wunderground v.1.15,2013-05-26 12:17:00,
2013-05-26 08:22:00,50.2,43.6,29.91,SSE,148,1.0,2.0,78,0.00,,,0.01,220,Wunderground v.1.15,2013-05-26 12:22:00,
2013-05-26 08:27:00,50.0,42.7,29.91,West,279,2.0,7.0,76,0.00,,,0.01,225,Wunderground v.1.15,2013-05-26 12:27:00,
2013-05-26 08:32:00,50.0,42.7,29.91,NW,315,1.0,6.0,76,0.00,,,0.01,257,Wunderground v.1.15,2013-05-26 12:32:00,
2013-05-26 08:37:00,50.3,43.0,29.91,NNW,346,2.0,10.0,76,0.00,,,0.01,327,Wunderground v.1.15,2013-05-26 12:37:00,
2013-05-26 08:42:00,50.4,42.8,29.91,ESE,109,2.0,7.0,75,0.00,,,0.01,227,Wunderground v.1.15,2013-05-26 12:42:00,
2013-05-26 08:47:00,50.3,42.7,29.91,SW,220,2.0,7.0,75,0.00,,,0.01,257,Wunderground v.1.15,2013-05-26 12:47:00,
2013-05-26 08:52:00,50.3,42.7,29.92,WNW,283,3.0,5.0,75,0.00,,,0.01,269,Wunderground v.1.15,2013-05-26 12:52:00,
2013-05-26 08:57:00,50.4,43.1,29.92,North,355,0.0,5.0,76,0.00,,,0.01,362,Wunderground v.1.15,2013-05-26 12:57:00,
2013-05-26 09:02:00,50.9,42.9,29.92,North,355,0.0,7.0,74,0.00,,,0.01,313,Wunderground v.1.15,2013-05-26 13:02:00,
2013-05-26 09:07:00,50.8,43.2,29.92,North,355,2.0,7.0,75,0.00,,,0.01,197,Wunderground v.1.15,2013-05-26 13:07:00,
2013-05-26 09:13:00,50.6,43.0,29.92,South,176,4.0,4.0,75,0.00,,,0.01,221,Wunderground v.1.15,2013-05-26 13:13:00,
2013-05-26 09:18:00,50.7,43.4,29.92,NE,49,0.0,5.0,76,0.00,,,0.01,179,Wunderground v.1.15,2013-05-26 13:18:00,
2013-05-26 09:23:00,50.6,43.0,29.92,SW,232,0.0,3.0,75,0.00,,,0.01,144,Wunderground v.1.15,2013-05-26 13:23:00,
2013-05-26 09:28:00,50.5,42.9,29.92,East,88,0.0,5.0,75,0.00,,,0.01,155,Wunderground v.1.15,2013-05-26 13:28:00,
2013-05-26 09:33:00,50.7,43.1,29.92,WNW,284,2.0,7.0,75,0.00,,,0.01,204,Wunderground v.1.15,2013-05-26 13:33:00,
2013-05-26 09:38:00,50.9,42.9,29.92,NNE,19,3.0,7.0,74,0.00,,,0.01,197,Wunderground v.1.15,2013-05-26 13:38:00,
2013-05-26 09:43:00,50.9,42.6,29.93,West,270,3.0,5.0,73,0.00,,,0.01,218,Wunderground v.1.15,2013-05-26 13:43:00,
2013-05-26 09:48:00,51.1,42.7,29.93,WSW,253,0.0,5.0,73,0.00,,,0.01,229,Wunderground v.1.15,2013-05-26 13:48:00,
2013-05-26 09:53:00,51.2,42.5,29.93,NE,37,3.0,11.0,72,0.00,,,0.01,209,Wunderground v.1.15,2013-05-26 13:53:00,
2013-05-26 09:58:00,51.2,42.5,29.93,East,92,0.0,11.0,72,0.00,,,0.01,309,Wunderground v.1.15,2013-05-26 13:58:00,
2013-05-26 10:03:00,51.5,42.8,29.93,NNE,31,1.0,3.0,72,0.00,,,0.01,244,Wunderground v.1.15,2013-05-26 14:03:00,
2013-05-26 10:08:00,51.7,43.0,29.93,North,360,2.0,6.0,72,0.00,,,0.01,315,Wunderground v.1.15,2013-05-26 14:08:00,
2013-05-26 10:13:00,51.9,43.2,29.93,WNW,295,3.0,3.0,72,0.00,,,0.01,241,Wunderground v.1.15,2013-05-26 14:13:00,
2013-05-26 10:18:00,51.6,42.5,29.94,NNW,338,7.0,12.0,71,0.00,,,0.01,313,Wunderground v.1.15,2013-05-26 14:18:00,
2013-05-26 10:23:00,51.8,42.7,29.94,NNW,335,0.0,5.0,71,0.00,,,0.01,508,Wunderground v.1.15,2013-05-26 14:23:00,
2013-05-26 10:28:00,52.7,43.6,29.94,South,187,3.0,5.0,71,0.00,,,0.01,462,Wunderground v.1.15,2013-05-26 14:28:00,
2013-05-26 10:33:00,52.8,43.3,29.94,NW,308,2.0,8.0,70,0.00,,,0.01,490,Wunderground v.1.15,2013-05-26 14:33:00,
2013-05-26 10:38:00,53.0,43.8,29.94,NNW,345,2.0,11.0,71,0.00,,,0.01,559,Wunderground v.1.15,2013-05-26 14:38:00,
2013-05-26 10:43:00,53.6,44.4,29.94,NNW,348,1.0,4.0,71,0.00,,,0.01,772,Wunderground v.1.15,2013-05-26 14:43:00,
2013-05-26 10:48:00,54.7,45.1,29.94,ENE,63,2.0,7.0,70,0.00,,,0.01,605,Wunderground v.1.15,2013-05-26 14:48:00,
2013-05-26 10:53:00,54.7,44.3,29.94,NNE,13,3.0,5.0,68,0.00,,,0.01,570,Wunderground v.1.15,2013-05-26 14:53:00,
2013-05-26 10:58:00,54.5,44.2,29.94,NW,313,1.0,7.0,68,0.00,,,0.01,770,Wunderground v.1.15,2013-05-26 14:58:00,
2013-05-26 11:03:00,55.1,44.7,29.94,NNW,340,2.0,8.0,68,0.00,,,0.01,1111,Wunderground v.1.15,2013-05-26 15:03:00,
2013-05-26 11:08:00,55.4,45.0,29.94,NNE,31,1.0,8.0,68,0.00,,,0.01,533,Wunderground v.1.15,2013-05-26 15:08:00,
2013-05-26 11:13:00,55.8,44.6,29.94,WSW,257,1.0,5.0,66,0.00,,,0.01,786,Wunderground v.1.15,2013-05-26 15:13:00,
2013-05-26 11:18:00,55.0,44.2,29.94,West,276,0.0,5.0,67,0.00,,,0.01,209,Wunderground v.1.15,2013-05-26 15:18:00,
2013-05-26 11:23:00,54.2,43.5,29.95,SW,219,3.0,6.0,67,0.00,,,0.01,151,Wunderground v.1.15,2013-05-26 15:23:00,
2013-05-26 11:28:00,53.3,43.0,29.95,North,355,1.0,8.0,68,0.00,,,0.01,139,Wunderground v.1.15,2013-05-26 15:28:00,
2013-05-26 11:33:00,52.7,43.6,29.95,WSW,237,3.0,8.0,71,0.00,,,0.01,265,Wunderground v.1.15,2013-05-26 15:33:00,
2013-05-26 11:38:00,52.4,45.1,29.95,North,355,0.0,13.0,76,0.00,,,0.01,928,Wunderground v.1.15,2013-05-26 15:38:00,
2013-05-26 11:43:00,53.6,46.2,29.95,NNW,344,6.0,6.0,76,0.00,,,0.01,956,Wunderground v.1.15,2013-05-26 15:43:00,
2013-05-26 11:48:00,54.9,46.0,29.95,NW,322,4.0,8.0,72,0.00,,,0.01,954,Wunderground v.1.15,2013-05-26 15:48:00,
2013-05-26 11:53:00,55.1,45.1,29.95,SW,221,6.0,6.0,69,0.00,,,0.01,545,Wunderground v.1.15,2013-05-26 15:53:00,
2013-05-26 11:58:00,54.7,43.6,29.95,NNE,20,3.0,11.0,66,0.00,,,0.01,578,Wunderground v.1.15,2013-05-26 15:58:00,
2013-05-26 12:03:00,55.4,44.6,29.95,NNE,29,2.0,4.0,67,0.00,,,0.01,578,Wunderground v.1.15,2013-05-26 16:03:00,
2013-05-26 12:08:00,56.3,45.9,29.95,North,349,0.0,6.0,68,0.00,,,0.01,557,Wunderground v.1.15,2013-05-26 16:08:00,
2013-05-26 12:14:00,55.9,44.3,29.95,SSE,159,2.0,6.0,65,0.00,,,0.01,454,Wunderground v.1.15,2013-05-26 16:14:00,
2013-05-26 12:19:00,56.4,44.8,29.95,SW,225,5.0,8.0,65,0.00,,,0.01,541,Wunderground v.1.15,2013-05-26 16:19:00,
2013-05-26 12:24:00,56.9,44.4,29.95,NNE,33,2.0,8.0,63,0.00,,,0.01,1343,Wunderground v.1.15,2013-05-26 16:24:00,
2013-05-26 12:29:00,56.2,43.8,29.95,ENE,63,3.0,9.0,63,0.00,,,0.01,561,Wunderground v.1.15,2013-05-26 16:29:00,
2013-05-26 12:34:00,55.9,43.9,29.95,North,360,3.0,4.0,64,0.00,,,0.01,480,Wunderground v.1.15,2013-05-26 16:34:00,
2013-05-26 12:39:00,56.5,44.5,29.95,WNW,296,3.0,10.0,64,0.00,,,0.01,429,Wunderground v.1.15,2013-05-26 16:39:00,
2013-05-26 12:44:00,56.2,43.8,29.95,West,267,5.0,7.0,63,0.00,,,0.01,258,Wunderground v.1.15,2013-05-26 16:44:00,
2013-05-26 12:49:00,55.7,43.7,29.95,NNE,19,3.0,7.0,64,0.00,,,0.01,246,Wunderground v.1.15,2013-05-26 16:49:00,
2013-05-26 12:54:00,57.8,45.3,29.95,NNW,347,4.0,6.0,63,0.00,,,0.01,,Wunderground v.1.15,2013-05-26 16:54:00,
2013-05-26 12:59:00,58.3,43.6,29.95,WSW,240,6.0,12.0,58,0.00,,,0.01,469,Wunderground v.1.15,2013-05-26 16:59:00,
2013-05-26 13:04:00,57.0,43.2,29.95,South,169,0.0,15.0,60,0.00,,,0.01,524,Wunderground v.1.15,2013-05-26 17:04:00,
2013-05-26 13:09:00,57.0,43.7,29.95,NE,39,1.0,15.0,61,0.00,,,0.01,297,Wunderground v.1.15,2013-05-26 17:09:00,
2013-05-26 13:14:00,56.8,43.5,29.95,South,189,3.0,9.0,61,0.00,,,0.01,345,Wunderground v.1.15,2013-05-26 17:14:00,
2013-05-26 13:19:00,57.9,44.5,29.95,West,259,4.0,9.0,61,0.00,,,0.01,1383,Wunderground v.1.15,2013-05-26 17:19:00,
2013-05-26 13:24:00,59.0,44.7,29.95,WNW,298,2.0,7.0,59,0.00,,,0.01,853,Wunderground v.1.15,2013-05-26 17:24:00,
2013-05-26 13:29:00,58.7,43.5,29.95,SW,236,6.0,8.0,57,0.00,,,0.01,761,Wunderground v.1.15,2013-05-26 17:29:00,
2013-05-26 13:34:00,59.9,44.2,29.95,West,279,3.0,8.0,56,0.00,,,0.01,,Wunderground v.1.15,2013-05-26 17:34:00,
2013-05-26 13:39:00,60.0,43.3,29.95,WNW,285,3.0,11.0,54,0.00,,,0.01,424,Wunderground v.1.15,2013-05-26 17:39:00,
2013-05-26 13:44:00,58.8,43.6,29.95,North,349,1.0,6.0,57,0.00,,,0.01,541,Wunderground v.1.15,2013-05-26 17:44:00,
2013-05-26 13:49:00,59.1,43.9,29.95,SW,232,7.0,8.0,57,0.00,,,0.01,543,Wunderground v.1.15,2013-05-26 17:49:00,
2013-05-26 13:54:00,59.5,44.7,29.95,South,188,3.0,9.0,58,0.00,,,0.01,543,Wunderground v.1.15,2013-05-26 17:54:00,
2013-05-26 13:59:00,59.1,42.9,29.96,North,10,1.0,9.0,55,0.00,,,0.01,244,Wunderground v.1.15,2013-05-26 17:59:00,
2013-05-26 14:04:00,58.4,43.2,29.96,NE,53,9.0,9.0,57,0.00,,,0.01,271,Wunderground v.1.15,2013-05-26 18:04:00,
2013-05-26 14:09:00,57.5,43.3,29.96,NNW,348,1.0,9.0,59,0.00,,,0.01,167,Wunderground v.1.15,2013-05-26 18:09:00,
2013-05-26 14:14:00,57.1,43.3,29.97,SSW,209,0.0,7.0,60,0.00,,,0.01,221,Wunderground v.1.15,2013-05-26 18:14:00,
2013-05-26 14:19:00,57.3,43.5,29.97,West,263,3.0,7.0,60,0.00,,,0.01,330,Wunderground v.1.15,2013-05-26 18:19:00,
2013-05-26 14:24:00,57.4,43.6,29.97,NE,36,2.0,7.0,60,0.00,,,0.01,401,Wunderground v.1.15,2013-05-26 18:24:00,
2013-05-26 14:29:00,58.1,43.8,29.97,South,178,5.0,7.0,59,0.00,,,0.01,487,Wunderground v.1.15,2013-05-26 18:29:00,
2013-05-26 14:34:00,58.1,43.4,29.98,North,355,2.0,7.0,58,0.00,,,0.01,446,Wunderground v.1.15,2013-05-26 18:34:00,
2013-05-26 14:39:00,58.0,42.8,29.98,North,355,3.0,7.0,57,0.00,,,0.01,297,Wunderground v.1.15,2013-05-26 18:39:00,
2013-05-26 14:44:00,57.9,43.2,29.98,NNE,21,4.0,4.0,58,0.00,,,0.01,376,Wunderground v.1.15,2013-05-26 18:44:00,
2013-05-26 14:49:00,57.9,42.8,29.98,SW,229,4.0,9.0,57,0.00,,,0.01,302,Wunderground v.1.15,2013-05-26 18:49:00,
2013-05-26 14:54:00,57.8,42.7,29.98,NE,53,3.0,9.0,57,0.00,,,0.01,197,Wunderground v.1.15,2013-05-26 18:54:00,
2013-05-26 14:59:00,57.3,42.6,29.98,ENE,61,3.0,9.0,58,0.00,,,0.01,163,Wunderground v.1.15,2013-05-26 18:59:00,
2013-05-26 15:04:00,57.1,42.5,29.99,NNW,346,6.0,7.0,58,0.00,,,0.01,287,Wunderground v.1.15,2013-05-26 19:04:00,
2013-05-26 15:09:00,57.6,42.5,29.99,NW,321,8.0,9.0,57,0.00,,,0.01,615,Wunderground v.1.15,2013-05-26 19:09:00,
2013-05-26 15:14:00,58.0,42.8,29.99,NE,44,2.0,12.0,57,0.00,,,0.01,496,Wunderground v.1.15,2013-05-26 19:14:00,
2013-05-26 15:19:00,58.2,43.5,29.99,WNW,294,4.0,12.0,58,0.00,,,0.01,466,Wunderground v.1.15,2013-05-26 19:19:00,
2013-05-26 15:24:00,58.0,44.2,29.99,North,9,3.0,5.0,60,0.00,,,0.01,369,Wunderground v.1.15,2013-05-26 19:24:00,
2013-05-26 15:29:00,57.8,44.0,29.99,SE,131,2.0,8.0,60,0.00,,,0.01,302,Wunderground v.1.15,2013-05-26 19:29:00,
2013-05-26 15:34:00,57.8,44.0,29.99,SE,138,0.0,7.0,60,0.00,,,0.01,473,Wunderground v.1.15,2013-05-26 19:34:00,
2013-05-26 15:39:00,58.4,43.7,29.99,West,277,8.0,9.0,58,0.00,,,0.01,420,Wunderground v.1.15,2013-05-26 19:39:00,
2013-05-26 15:44:00,59.1,42.9,29.99,WNW,298,7.0,8.0,55,0.00,,,0.01,670,Wunderground v.1.15,2013-05-26 19:44:00,
2013-05-26 15:49:00,59.3,44.1,29.99,NE,44,2.0,14.0,57,0.00,,,0.01,633,Wunderground v.1.15,2013-05-26 19:49:00,
2013-05-26 15:54:00,58.6,42.9,29.99,East,90,1.0,8.0,56,0.00,,,0.01,220,Wunderground v.1.15,2013-05-26 19:54:00,
2013-05-26 15:59:00,58.0,43.7,30.00,West,277,2.0,8.0,59,0.00,,,0.01,248,Wunderground v.1.15,2013-05-26 19:59:00,
2013-05-26 16:04:00,57.8,44.4,30.00,ESE,109,5.0,7.0,61,0.00,,,0.01,385,Wunderground v.1.15,2013-05-26 20:04:00,
2013-05-26 16:09:00,59.6,44.8,30.01,SW,228,3.0,7.0,58,0.00,,,0.01,1371,Wunderground v.1.15,2013-05-26 20:09:00,
2013-05-26 16:14:00,59.8,44.1,30.01,NNE,20,7.0,7.0,56,0.00,,,0.01,891,Wunderground v.1.15,2013-05-26 20:14:00,
2013-05-26 16:19:00,59.7,44.9,30.00,ESE,116,2.0,10.0,58,0.00,,,0.01,1274,Wunderground v.1.15,2013-05-26 20:19:00,
2013-05-26 16:25:00,58.8,43.6,30.01,North,5,5.0,7.0,57,0.00,,,0.01,357,Wunderground v.1.15,2013-05-26 20:25:00,
2013-05-26 16:30:00,58.3,44.5,30.01,NNW,343,3.0,7.0,60,0.00,,,0.01,278,Wunderground v.1.15,2013-05-26 20:30:00,
2013-05-26 16:35:00,58.4,45.0,30.01,North,355,3.0,8.0,61,0.00,,,0.01,348,Wunderground v.1.15,2013-05-26 20:35:00,
2013-05-26 16:40:00,58.0,45.0,30.01,North,350,0.0,2.0,62,0.00,,,0.01,236,Wunderground v.1.15,2013-05-26 20:40:00,
2013-05-26 16:45:00,57.8,44.4,30.02,North,355,2.0,5.0,61,0.00,,,0.01,142,Wunderground v.1.15,2013-05-26 20:45:00,
2013-05-26 16:50:00,57.3,44.4,30.02,North,10,5.0,5.0,62,0.00,,,0.01,97,Wunderground v.1.15,2013-05-26 20:50:00,
2013-05-26 16:55:00,56.4,45.2,30.03,NW,322,3.0,10.0,66,0.00,,,0.01,204,Wunderground v.1.15,2013-05-26 20:55:00,
2013-05-26 17:00:00,55.9,45.5,30.03,North,360,4.0,4.0,68,0.00,,,0.01,413,Wunderground v.1.15,2013-05-26 21:00:00,
2013-05-26 17:05:00,56.2,45.0,30.03,WSW,240,3.0,9.0,66,0.00,,,0.01,352,Wunderground v.1.15,2013-05-26 21:05:00,
2013-05-26 17:10:00,56.3,45.1,30.04,South,184,1.0,3.0,66,0.00,,,0.01,279,Wunderground v.1.15,2013-05-26 21:10:00,
2013-05-26 17:15:00,56.6,45.4,30.04,ENE,70,3.0,4.0,66,0.00,,,0.01,260,Wunderground v.1.15,2013-05-26 21:15:00,
2013-05-26 17:20:00,56.4,44.8,30.04,WNW,291,3.0,3.0,65,0.00,,,0.01,232,Wunderground v.1.15,2013-05-26 21:20:00,
2013-05-26 17:25:00,56.5,44.9,30.04,WNW,286,7.0,7.0,65,0.00,,,0.01,302,Wunderground v.1.15,2013-05-26 21:25:00,
2013-05-26 17:30:00,56.6,45.0,30.05,WSW,243,4.0,4.0,65,0.00,,,0.01,309,Wunderground v.1.15,2013-05-26 21:30:00,
2013-05-26 17:35:00,56.6,45.0,30.05,WNW,285,6.0,6.0,65,0.00,,,0.01,255,Wunderground v.1.15,2013-05-26 21:35:00,
2013-05-26 17:40:00,56.4,44.4,30.05,SE,142,0.0,2.0,64,0.00,,,0.01,193,Wunderground v.1.15,2013-05-26 21:40:00,
2013-05-26 17:45:00,56.3,44.7,30.05,NNW,334,3.0,8.0,65,0.00,,,0.01,192,Wunderground v.1.15,2013-05-26 21:45:00,
2013-05-26 17:50:00,56.3,44.3,30.05,NNE,25,1.0,2.0,64,0.00,,,0.01,236,Wunderground v.1.15,2013-05-26 21:50:00,
2013-05-26 17:55:00,56.5,44.5,30.06,NNW,348,10.0,10.0,64,0.00,,,0.01,211,Wunderground v.1.15,2013-05-26 21:55:00,
2013-05-26 18:00:00,56.2,44.2,30.06,SSW,205,1.0,2.0,64,0.00,,,0.01,176,Wunderground v.1.15,2013-05-26 22:00:00,
2013-05-26 18:05:00,56.1,44.1,30.06,SE,129,3.0,5.0,64,0.00,,,0.01,155,Wunderground v.1.15,2013-05-26 22:05:00,
2013-05-26 18:10:00,56.0,44.0,30.07,SSE,157,2.0,2.0,64,0.00,,,0.01,220,Wunderground v.1.15,2013-05-26 22:10:00,
2013-05-26 18:15:00,56.0,43.2,30.07,North,5,2.0,10.0,62,0.00,,,0.01,151,Wunderground v.1.15,2013-05-26 22:15:00,
2013-05-26 18:20:00,55.7,42.9,30.07,NW,304,1.0,7.0,62,0.00,,,0.01,162,Wunderground v.1.15,2013-05-26 22:20:00,
2013-05-26 18:25:00,55.4,42.6,30.07,SSW,202,2.0,10.0,62,0.00,,,0.01,148,Wunderground v.1.15,2013-05-26 22:25:00,
2013-05-26 18:30:00,55.8,43.4,30.07,WSW,248,0.0,3.0,63,0.00,,,0.01,387,Wunderground v.1.15,2013-05-26 22:30:00,
2013-05-26 18:35:00,56.1,43.3,30.07,WSW,252,3.0,9.0,62,0.00,,,0.01,313,Wunderground v.1.15,2013-05-26 22:35:00,
2013-05-26 18:40:00,55.9,43.9,30.07,WSW,244,0.0,4.0,64,0.00,,,0.01,58,Wunderground v.1.15,2013-05-26 22:40:00,
2013-05-26 18:45:00,55.8,43.8,30.08,NW,317,3.0,7.0,64,0.00,,,0.01,88,Wunderground v.1.15,2013-05-26 22:45:00,
2013-05-26 18:50:00,55.7,43.7,30.08,NNW,333,1.0,2.0,64,0.00,,,0.01,67,Wunderground v.1.15,2013-05-26 22:50:00,
2013-05-26 18:55:00,55.5,43.5,30.08,NNE,19,1.0,4.0,64,0.00,,,0.01,60,Wunderground v.1.15,2013-05-26 22:55:00,
2013-05-26 19:00:00,55.3,43.3,30.08,NNW,331,2.0,2.0,64,0.00,,,0.01,63,Wunderground v.1.15,2013-05-26 23:00:00,
2013-05-26 19:05:00,55.2,43.2,30.08,North,11,1.0,7.0,64,0.00,,,0.01,72,Wunderground v.1.15,2013-05-26 23:05:00,
2013-05-26 19:10:00,55.1,43.1,30.08,West,269,0.0,3.0,64,0.00,,,0.01,79,Wunderground v.1.15,2013-05-26 23:10:00,
2013-05-26 19:15:00,55.1,43.1,30.09,NW,309,2.0,9.0,64,0.00,,,0.01,74,Wunderground v.1.15,2013-05-26 23:15:00,
2013-05-26 19:20:00,55.0,43.4,30.09,NNE,32,0.0,3.0,65,0.00,,,0.01,46,Wunderground v.1.15,2013-05-26 23:20:00,
2013-05-26 19:26:00,54.7,43.6,30.09,North,5,3.0,5.0,66,0.00,,,0.01,49,Wunderground v.1.15,2013-05-26 23:26:00,
2013-05-26 19:31:00,54.5,43.4,30.10,SW,219,2.0,2.0,66,0.00,,,0.01,37,Wunderground v.1.15,2013-05-26 23:31:00,
2013-05-26 19:36:00,54.2,43.5,30.10,NNW,330,1.0,4.0,67,0.00,,,0.01,28,Wunderground v.1.15,2013-05-26 23:36:00,
2013-05-26 19:41:00,54.0,43.7,30.10,NNE,19,0.0,1.0,68,0.00,,,0.01,25,Wunderground v.1.15,2013-05-26 23:41:00,
2013-05-26 19:46:00,53.7,43.8,30.10,North,11,0.0,4.0,69,0.00,,,0.01,21,Wunderground v.1.15,2013-05-26 23:46:00,
2013-05-26 19:51:00,53.6,43.7,30.10,NNW,336,0.0,1.0,69,0.00,,,0.01,18,Wunderground v.1.15,2013-05-26 23:51:00,
2013-05-26 19:56:00,53.3,43.4,30.10,NNW,338,0.0,1.0,69,0.00,,,0.01,14,Wunderground v.1.15,2013-05-26 23:56:00,
2013-05-26 20:01:00,53.2,43.3,30.11,SE,142,1.0,3.0,69,0.00,,,0.01,12,Wunderground v.1.15,2013-05-27 00:01:00,
2013-05-26 20:06:00,53.1,43.6,30.11,North,355,0.0,3.0,70,0.00,,,0.01,9,Wunderground v.1.15,2013-05-27 00:06:00,
2013-05-26 20:11:00,52.8,43.3,30.11,SSE,163,1.0,5.0,70,0.00,,,0.01,7,Wunderground v.1.15,2013-05-27 00:11:00,
2013-05-26 20:16:00,52.7,43.2,30.11,NNW,329,0.0,5.0,70,0.00,,,0.01,5,Wunderground v.1.15,2013-05-27 00:16:00,
2013-05-26 20:21:00,52.4,43.3,30.12,SW,232,0.0,0.0,71,0.00,,,0.01,0,Wunderground v.1.15,2013-05-27 00:21:00,
2013-05-26 20:26:00,51.9,43.2,30.12,SW,232,0.0,1.0,72,0.00,,,0.01,0,Wunderground v.1.15,2013-05-27 00:26:00,
2013-05-26 20:31:00,51.8,43.4,30.12,SW,232,0.0,1.0,73,0.00,,,0.01,0,Wunderground v.1.15,2013-05-27 00:31:00,
2013-05-26 20:36:00,51.7,43.3,30.12,SSW,193,2.0,3.0,73,0.00,,,0.01,0,Wunderground v.1.15,2013-05-27 00:36:00,
2013-05-26 20:41:00,51.8,43.1,30.12,ESE,120,1.0,1.0,72,0.00,,,0.01,0,Wunderground v.1.15,2013-05-27 00:41:00,
2013-05-26 20:46:00,51.7,43.0,30.12,North,350,0.0,2.0,72,0.00,,,0.01,0,Wunderground v.1.15,2013-05-27 00:46:00,
2013-05-26 20:51:00,51.8,43.1,30.12,WSW,242,1.0,2.0,72,0.00,,,0.01,0,Wunderground v.1.15,2013-05-27 00:51:00,
2013-05-26 20:56:00,51.6,42.9,30.13,WSW,250,0.0,2.0,72,0.00,,,0.01,0,Wunderground v.1.15,2013-05-27 00:56:00,
2013-05-26 21:01:00,51.5,43.1,30.12,SW,229,1.0,3.0,73,0.00,,,0.01,0,Wunderground v.1.15,2013-05-27 01:01:00,
2013-05-26 21:07:00,51.2,42.8,30.13,WNW,289,0.0,3.0,73,0.00,,,0.01,0,Wunderground v.1.15,2013-05-27 01:07:00,
2013-05-26 21:12:00,50.6,43.0,30.13,WNW,289,0.0,1.0,75,0.00,,,0.01,0,Wunderground v.1.15,2013-05-27 01:12:00,
2013-05-26 21:17:00,50.3,42.7,30.13,WNW,289,0.0,1.0,75,0.00,,,0.01,0,Wunderground v.1.15,2013-05-27 01:17:00,
2013-05-26 21:22:00,50.1,42.8,30.13,WNW,289,0.0,0.0,76,0.00,,,0.01,0,Wunderground v.1.15,2013-05-27 01:22:00,
2013-05-26 21:27:00,49.2,42.6,30.13,WNW,289,0.0,0.0,78,0.00,,,0.01,0,Wunderground v.1.15,2013-05-27 01:27:00,
2013-05-26 21:32:00,48.9,42.7,30.13,WNW,289,0.0,0.0,79,0.00,,,0.01,0,Wunderground v.1.15,2013-05-27 01:32:00,
2013-05-26 21:37:00,48.3,42.7,30.13,WNW,289,0.0,0.0,81,0.00,,,0.01,0,Wunderground v.1.15,2013-05-27 01:37:00,
2013-05-26 21:42:00,47.7,42.5,30.13,WNW,289,0.0,0.0,82,0.00,,,0.01,0,Wunderground v.1.15,2013-05-27 01:42:00,
2013-05-26 21:47:00,47.3,42.4,30.13,WNW,289,0.0,0.0,83,0.00,,,0.01,0,Wunderground v.1.15,2013-05-27 01:47:00,
2013-05-26 21:52:00,47.0,42.4,30.13,WNW,289,0.0,0.0,84,0.00,,,0.01,0,Wunderground v.1.15,2013-05-27 01:52:00,
2013-05-26 21:57:00,46.7,42.4,30.13,WNW,289,0.0,0.0,85,0.00,,,0.01,0,Wunderground v.1.15,2013-05-27 01:57:00,
2013-05-26 22:02:00,46.4,42.4,30.13,WNW,289,0.0,0.0,86,0.00,,,0.01,0,Wunderground v.1.15,2013-05-27 02:02:00,
2013-05-26 22:07:00,46.2,42.2,30.14,WNW,289,0.0,0.0,86,0.00,,,0.01,0,Wunderground v.1.15,2013-05-27 02:07:00,
2013-05-26 22:12:00,45.8,42.2,30.14,WNW,289,0.0,0.0,87,0.00,,,0.01,0,Wunderground v.1.15,2013-05-27 02:12:00,
2013-05-26 22:17:00,45.4,42.1,30.14,WNW,289,0.0,0.0,88,0.00,,,0.01,0,Wunderground v.1.15,2013-05-27 02:17:00,
2013-05-26 22:22:00,45.2,42.2,30.14,WNW,289,0.0,0.0,89,0.00,,,0.01,0,Wunderground v.1.15,2013-05-27 02:22:00,
2013-05-26 22:27:00,45.2,42.2,30.14,WNW,289,0.0,0.0,89,0.00,,,0.01,0,Wunderground v.1.15,2013-05-27 02:27:00,
2013-05-26 22:32:00,45.1,42.1,30.14,WNW,289,0.0,0.0,89,0.00,,,0.01,0,Wunderground v.1.15,2013-05-27 02:32:00,
2013-05-26 22:37:00,45.5,42.4,30.15,WNW,288,0.0,2.0,89,0.00,,,0.01,0,Wunderground v.1.15,2013-05-27 02:37:00,
2013-05-26 22:42:00,46.0,42.6,30.15,WNW,288,0.0,0.0,88,0.00,,,0.01,0,Wunderground v.1.15,2013-05-27 02:42:00,
2013-05-26 22:47:00,45.7,42.3,30.15,WNW,288,0.0,0.0,88,0.00,,,0.01,0,Wunderground v.1.15,2013-05-27 02:47:00,
2013-05-26 22:52:00,45.2,42.2,30.15,WNW,288,0.0,0.0,89,0.00,,,0.01,0,Wunderground v.1.15,2013-05-27 02:52:00,
2013-05-26 22:57:00,44.6,41.6,30.16,WNW,288,0.0,0.0,89,0.00,,,0.01,0,Wunderground v.1.15,2013-05-27 02:57:00,
2013-05-26 23:02:00,44.5,41.7,30.16,WNW,288,0.0,0.0,90,0.00,,,0.01,0,Wunderground v.1.15,2013-05-27 03:02:00,
2013-05-26 23:07:00,44.3,41.8,30.16,WNW,288,0.0,0.0,91,0.00,,,0.01,0,Wunderground v.1.15,2013-05-27 03:07:00,
2013-05-26 23:12:00,44.1,41.6,30.16,WNW,288,0.0,0.0,91,0.00,,,0.01,0,Wunderground v.1.15,2013-05-27 03:12:00,
2013-05-26 23:17:00,43.7,41.2,30.16,WNW,288,0.0,0.0,91,0.00,,,0.01,0,Wunderground v.1.15,2013-05-27 03:17:00,
2013-05-26 23:22:00,43.4,40.9,30.16,WNW,288,0.0,0.0,91,0.00,,,0.01,0,Wunderground v.1.15,2013-05-27 03:22:00,
2013-05-26 23:27:00,43.1,40.9,30.16,WNW,288,0.0,0.0,92,0.00,,,0.01,0,Wunderground v.1.15,2013-05-27 03:27:00,
2013-05-26 23:32:00,43.0,40.8,30.17,WNW,288,0.0,0.0,92,0.00,,,0.01,0,Wunderground v.1.15,2013-05-27 03:32:00,
2013-05-26 23:37:00,42.9,40.7,30.17,WNW,288,0.0,0.0,92,0.00,,,0.01,0,Wunderground v.1.15,2013-05-27 03:37:00,
2013-05-26 23:42:00,42.8,40.9,30.17,WNW,288,0.0,0.0,93,0.00,,,0.01,0,Wunderground v.1.15,2013-05-27 03:42:00,
2013-05-26 23:47:00,42.7,40.8,30.17,WNW,288,0.0,0.0,93,0.00,,,0.01,0,Wunderground v.1.15,2013-05-27 03:47:00,
2013-05-26 23:53:00,42.7,40.8,30.17,WNW,288,0.0,0.0,93,0.00,,,0.01,0,Wunderground v.1.15,2013-05-27 03:53:00,
2013-05-26 23:58:00,42.7,40.8,30.17,WNW,288,0.0,0.0,93,0.00,,,0.01,0,Wunderground v.1.15,2013-05-27 03:58:00,